Time,TemperatureF,DewpointF,PressureIn,WindDirection,WindDirectionDegrees,WindSpeedMPH,WindSpeedGustMPH,Humidity,HourlyPrecipIn,Conditions,Clouds,dailyrainin,SoftwareType,DateUTC
2013-04-30 00:05:00,61.7,48.5,29.79,SSE,157,0.0,0.0,62,0.00,,,0.00,Wunderground v.1.15,2013-04-30 07:05:00,
2013-04-30 00:10:00,61.5,48.4,29.79,East,90,0.0,0.0,62,0.00,,,0.00,Wunderground v.1.15,2013-04-30 07:10:00,
2013-04-30 00:15:00,61.4,48.3,29.79,East,90,0.0,0.0,62,0.00,,,0.00,Wunderground v.1.15,2013-04-30 07:15:00,
2013-04-30 00:20:00,61.3,48.2,29.79,ENE,78,0.0,0.0,62,0.00,,,0.00,Wunderground v.1.15,2013-04-30 07:20:00,
2013-04-30 00:25:00,61.1,48.4,29.79,ENE,78,0.0,0.0,63,0.00,,,0.00,Wunderground v.1.15,2013-04-30 07:25:00,
2013-04-30 00:30:00,60.9,48.2,29.80,ENE,78,0.0,0.0,63,0.00,,,0.00,Wunderground v.1.15,2013-04-30 07:30:00,
2013-04-30 00:35:00,60.7,48.0,29.80,ENE,78,0.0,0.0,63,0.00,,,0.00,Wunderground v.1.15,2013-04-30 07:35:00,
2013-04-30 00:45:00,60.4,48.2,29.80,ENE,78,0.0,0.0,64,0.00,,,0.00,Wunderground v.1.15,2013-04-30 07:45:00,
2013-04-30 00:50:00,60.2,48.0,29.80,ENE,78,0.0,0.0,64,0.00,,,0.00,Wunderground v.1.15,2013-04-30 07:50:00,
2013-04-30 00:55:00,60.0,47.8,29.80,ENE,78,0.0,0.0,64,0.00,,,0.00,Wunderground v.1.15,2013-04-30 07:55:00,
2013-04-30 01:00:00,59.8,48.0,29.80,East,79,0.0,0.0,65,0.00,,,0.00,Wunderground v.1.15,2013-04-30 08:00:00,
2013-04-30 01:05:00,59.5,47.7,29.80,East,79,0.0,0.0,65,0.00,,,0.00,Wunderground v.1.15,2013-04-30 08:05:00,
2013-04-30 01:10:00,59.3,47.5,29.80,East,79,0.0,0.0,65,0.00,,,0.00,Wunderground v.1.15,2013-04-30 08:10:00,
2013-04-30 01:15:00,59.0,47.7,29.80,ENE,78,0.0,0.0,66,0.00,,,0.00,Wunderground v.1.15,2013-04-30 08:15:00,
2013-04-30 01:25:00,58.6,47.7,29.79,ENE,78,0.0,0.0,67,0.00,,,0.00,Wunderground v.1.15,2013-04-30 08:25:00,
2013-04-30 01:30:00,58.3,47.8,29.79,ENE,78,0.0,0.0,68,0.00,,,0.00,Wunderground v.1.15,2013-04-30 08:30:00,
2013-04-30 01:35:00,58.1,47.6,29.79,ENE,78,0.0,0.0,68,0.00,,,0.00,Wunderground v.1.15,2013-04-30 08:35:00,
2013-04-30 01:40:00,57.9,47.4,29.79,ENE,78,0.0,0.0,68,0.00,,,0.00,Wunderground v.1.15,2013-04-30 08:40:00,
2013-04-30 01:45:00,57.7,47.6,29.79,ENE,78,0.0,0.0,69,0.00,,,0.00,Wunderground v.1.15,2013-04-30 08:45:00,
2013-04-30 01:55:00,57.2,47.5,29.79,NW,312,0.0,0.0,70,0.00,,,0.00,Wunderground v.1.15,2013-04-30 08:55:00,
2013-04-30 02:00:00,57.1,47.4,29.79,NW,312,0.0,0.0,70,0.00,,,0.00,Wunderground v.1.15,2013-04-30 09:00:00,
2013-04-30 02:05:00,56.8,47.1,29.80,NW,312,0.0,0.0,70,0.00,,,0.00,Wunderground v.1.15,2013-04-30 09:05:00,
2013-04-30 02:10:00,56.6,47.7,29.80,NW,312,0.0,0.0,72,0.00,,,0.00,Wunderground v.1.15,2013-04-30 09:10:00,
2013-04-30 02:15:00,56.4,47.5,29.80,NW,312,0.0,0.0,72,0.00,,,0.00,Wunderground v.1.15,2013-04-30 09:15:00,
2013-04-30 02:20:00,56.2,47.7,29.79,NW,312,0.0,0.0,73,0.00,,,0.00,Wunderground v.1.15,2013-04-30 09:20:00,
2013-04-30 02:30:00,55.9,47.7,29.80,NW,312,0.0,0.0,74,0.00,,,0.00,Wunderground v.1.15,2013-04-30 09:30:00,
2013-04-30 02:35:00,55.8,47.6,29.79,NW,312,0.0,0.0,74,0.00,,,0.00,Wunderground v.1.15,2013-04-30 09:35:00,
2013-04-30 02:40:00,55.6,47.8,29.79,NW,312,0.0,0.0,75,0.00,,,0.00,Wunderground v.1.15,2013-04-30 09:40:00,
2013-04-30 02:45:00,55.4,47.6,29.80,NW,312,0.0,0.0,75,0.00,,,0.00,Wunderground v.1.15,2013-04-30 09:45:00,
2013-04-30 02:55:00,55.0,47.2,29.79,NW,312,0.0,0.0,75,0.00,,,0.00,Wunderground v.1.15,2013-04-30 09:55:00,
2013-04-30 03:00:00,54.9,47.1,29.79,NW,312,0.0,0.0,75,0.00,,,0.00,Wunderground v.1.15,2013-04-30 10:00:00,
2013-04-30 03:05:00,54.8,47.0,29.80,NW,312,0.0,0.0,75,0.00,,,0.00,Wunderground v.1.15,2013-04-30 10:05:00,
2013-04-30 03:15:00,54.6,46.8,29.80,NW,312,0.0,0.0,75,0.00,,,0.00,Wunderground v.1.15,2013-04-30 10:15:00,
2013-04-30 03:20:00,54.6,46.8,29.80,NW,312,0.0,0.0,75,0.00,,,0.00,Wunderground v.1.15,2013-04-30 10:20:00,
2013-04-30 03:30:00,54.5,47.1,29.80,NW,312,0.0,0.0,76,0.00,,,0.00,Wunderground v.1.15,2013-04-30 10:30:00,
2013-04-30 03:35:00,54.4,47.3,29.80,NW,312,0.0,0.0,77,0.00,,,0.00,Wunderground v.1.15,2013-04-30 10:35:00,
2013-04-30 03:40:00,54.4,47.0,29.80,NW,312,0.0,0.0,76,0.00,,,0.00,Wunderground v.1.15,2013-04-30 10:40:00,
2013-04-30 03:45:00,54.3,47.2,29.80,NW,313,0.0,0.0,77,0.00,,,0.00,Wunderground v.1.15,2013-04-30 10:45:00,
2013-04-30 03:50:00,54.4,47.3,29.80,NW,313,0.0,0.0,77,0.00,,,0.00,Wunderground v.1.15,2013-04-30 10:50:00,
2013-04-30 04:00:00,54.4,47.3,29.80,NW,312,0.0,0.0,77,0.00,,,0.00,Wunderground v.1.15,2013-04-30 11:00:00,
2013-04-30 04:05:00,54.3,47.6,29.80,NW,312,0.0,0.0,78,0.00,,,0.00,Wunderground v.1.15,2013-04-30 11:05:00,
2013-04-30 04:15:00,54.1,47.7,29.80,NW,312,0.0,0.0,79,0.00,,,0.00,Wunderground v.1.15,2013-04-30 11:15:00,
2013-04-30 04:20:00,54.1,47.7,29.80,NW,312,0.0,0.0,79,0.00,,,0.00,Wunderground v.1.15,2013-04-30 11:20:00,
2013-04-30 04:25:00,54.0,47.6,29.80,NW,312,0.0,0.0,79,0.00,,,0.00,Wunderground v.1.15,2013-04-30 11:25:00,
2013-04-30 04:35:00,53.8,47.8,29.80,NW,312,0.0,0.0,80,0.00,,,0.00,Wunderground v.1.15,2013-04-30 11:35:00,
2013-04-30 04:40:00,53.7,47.3,29.80,NW,312,0.0,0.0,79,0.00,,,0.00,Wunderground v.1.15,2013-04-30 11:40:00,
2013-04-30 04:45:00,53.6,47.2,29.80,NW,312,0.0,0.0,79,0.00,,,0.00,Wunderground v.1.15,2013-04-30 11:45:00,
2013-04-30 04:50:00,53.5,47.5,29.80,NW,312,0.0,0.0,80,0.00,,,0.00,Wunderground v.1.15,2013-04-30 11:50:00,
2013-04-30 05:00:00,53.5,47.1,29.80,NW,311,0.0,0.0,79,0.00,,,0.00,Wunderground v.1.15,2013-04-30 12:00:00,
2013-04-30 05:05:00,53.7,47.3,29.80,West,265,0.0,2.0,79,0.00,,,0.00,Wunderground v.1.15,2013-04-30 12:05:00,
2013-04-30 05:15:00,54.2,47.1,29.80,West,271,0.0,0.0,77,0.00,,,0.00,Wunderground v.1.15,2013-04-30 12:15:00,
2013-04-30 05:20:00,54.3,47.2,29.80,WNW,302,0.0,0.0,77,0.00,,,0.00,Wunderground v.1.15,2013-04-30 12:20:00,
2013-04-30 05:25:00,54.6,47.2,29.80,West,259,0.0,0.0,76,0.00,,,0.00,Wunderground v.1.15,2013-04-30 12:25:00,
2013-04-30 05:35:00,54.8,47.0,29.80,WSW,258,0.0,0.0,75,0.00,,,0.00,Wunderground v.1.15,2013-04-30 12:35:00,
2013-04-30 05:40:00,54.7,46.9,29.80,South,177,0.0,0.0,75,0.00,,,0.00,Wunderground v.1.15,2013-04-30 12:40:00,
2013-04-30 05:45:00,54.6,46.8,29.80,South,177,0.0,0.0,75,0.00,,,0.00,Wunderground v.1.15,2013-04-30 12:45:00,
2013-04-30 05:55:00,54.4,47.0,29.80,South,178,0.0,0.0,76,0.00,,,0.00,Wunderground v.1.15,2013-04-30 12:55:00,
2013-04-30 06:00:00,54.2,46.8,29.81,South,178,0.0,0.0,76,0.00,,,0.00,Wunderground v.1.15,2013-04-30 13:00:00,
2013-04-30 06:05:00,54.0,46.6,29.81,South,170,0.0,0.0,76,0.00,,,0.00,Wunderground v.1.15,2013-04-30 13:05:00,
2013-04-30 06:10:00,54.1,46.3,29.81,WNW,298,0.0,0.0,75,0.00,,,0.00,Wunderground v.1.15,2013-04-30 13:10:00,
2013-04-30 06:20:00,54.8,46.3,29.82,NW,309,0.0,1.0,73,0.00,,,0.00,Wunderground v.1.15,2013-04-30 13:20:00,
2013-04-30 06:25:00,55.0,46.1,29.82,WNW,295,1.0,1.0,72,0.00,,,0.00,Wunderground v.1.15,2013-04-30 13:25:00,
2013-04-30 06:30:00,55.2,46.3,29.82,WNW,287,1.0,1.0,72,0.00,,,0.00,Wunderground v.1.15,2013-04-30 13:30:00,
2013-04-30 06:35:00,55.3,46.4,29.83,West,265,0.0,1.0,72,0.00,,,0.00,Wunderground v.1.15,2013-04-30 13:35:00,
2013-04-30 06:40:00,55.3,46.4,29.82,WNW,293,0.0,0.0,72,0.00,,,0.00,Wunderground v.1.15,2013-04-30 13:40:00,
2013-04-30 06:45:00,55.3,46.1,29.83,NW,317,0.0,1.0,71,0.00,,,0.00,Wunderground v.1.15,2013-04-30 13:45:00,
2013-04-30 06:55:00,55.5,46.6,29.83,NW,310,1.0,1.0,72,0.00,,,0.00,Wunderground v.1.15,2013-04-30 13:55:00,
2013-04-30 07:00:00,55.5,46.6,29.83,NW,325,1.0,1.0,72,0.00,,,0.00,Wunderground v.1.15,2013-04-30 14:00:00,
2013-04-30 07:05:00,55.6,46.7,29.83,NW,313,1.0,1.0,72,0.00,,,0.00,Wunderground v.1.15,2013-04-30 14:05:00,
2013-04-30 07:10:00,55.6,46.7,29.83,West,264,1.0,1.0,72,0.00,,,0.00,Wunderground v.1.15,2013-04-30 14:10:00,
2013-04-30 07:15:00,55.7,46.8,29.83,West,268,0.0,1.0,72,0.00,,,0.00,Wunderground v.1.15,2013-04-30 14:15:00,
2013-04-30 07:25:00,55.9,47.0,29.84,West,261,0.0,0.0,72,0.00,,,0.00,Wunderground v.1.15,2013-04-30 14:25:00,
2013-04-30 07:30:00,55.9,46.6,29.84,West,262,0.0,0.0,71,0.00,,,0.00,Wunderground v.1.15,2013-04-30 14:30:00,
2013-04-30 07:35:00,56.1,47.2,29.84,West,262,0.0,0.0,72,0.00,,,0.00,Wunderground v.1.15,2013-04-30 14:35:00,
2013-04-30 07:40:00,56.3,47.4,29.84,West,262,0.0,0.0,72,0.00,,,0.00,Wunderground v.1.15,2013-04-30 14:40:00,
2013-04-30 07:45:00,56.5,47.6,29.84,West,261,0.0,0.0,72,0.00,,,0.00,Wunderground v.1.15,2013-04-30 14:45:00,
2013-04-30 07:50:00,56.7,47.4,29.84,West,261,0.0,0.0,71,0.00,,,0.00,Wunderground v.1.15,2013-04-30 14:50:00,
2013-04-30 08:00:00,57.3,47.2,29.83,NW,315,0.0,0.0,69,0.00,,,0.00,Wunderground v.1.15,2013-04-30 15:00:00,
2013-04-30 08:05:00,57.6,47.5,29.84,NNW,331,0.0,0.0,69,0.00,,,0.00,Wunderground v.1.15,2013-04-30 15:05:00,
2013-04-30 08:10:00,58.0,47.1,29.84,NNW,336,0.0,0.0,67,0.00,,,0.00,Wunderground v.1.15,2013-04-30 15:10:00,
2013-04-30 08:15:00,58.4,47.9,29.84,NNW,336,0.0,0.0,68,0.00,,,0.00,Wunderground v.1.15,2013-04-30 15:15:00,
2013-04-30 08:25:00,59.4,47.6,29.84,West,271,0.0,1.0,65,0.00,,,0.00,Wunderground v.1.15,2013-04-30 15:25:00,
2013-04-30 08:30:00,59.6,47.8,29.84,WSW,251,1.0,1.0,65,0.00,,,0.00,Wunderground v.1.15,2013-04-30 15:30:00,
2013-04-30 08:35:00,59.9,48.1,29.84,WSW,252,1.0,1.0,65,0.00,,,0.00,Wunderground v.1.15,2013-04-30 15:35:00,
2013-04-30 08:40:00,60.3,48.1,29.84,NW,308,1.0,5.0,64,0.00,,,0.00,Wunderground v.1.15,2013-04-30 15:40:00,
2013-04-30 08:45:00,60.5,48.3,29.84,West,273,1.0,5.0,64,0.00,,,0.00,Wunderground v.1.15,2013-04-30 15:45:00,
2013-04-30 08:55:00,61.3,48.2,29.85,WNW,302,1.0,1.0,62,0.00,,,0.00,Wunderground v.1.15,2013-04-30 15:55:00,
2013-04-30 09:00:00,61.7,48.1,29.85,WSW,257,1.0,2.0,61,0.00,,,0.00,Wunderground v.1.15,2013-04-30 16:00:00,
2013-04-30 09:05:00,62.0,48.4,29.85,WNW,294,2.0,2.0,61,0.00,,,0.00,Wunderground v.1.15,2013-04-30 16:05:00,
2013-04-30 09:10:00,62.3,48.2,29.85,NW,306,2.0,2.0,60,0.00,,,0.00,Wunderground v.1.15,2013-04-30 16:10:00,
2013-04-30 09:20:00,62.8,47.8,29.85,West,261,3.0,4.0,58,0.00,,,0.00,Wunderground v.1.15,2013-04-30 16:20:00,
2013-04-30 09:25:00,62.6,47.1,29.85,West,277,3.0,4.0,57,0.00,,,0.00,Wunderground v.1.15,2013-04-30 16:25:00,
2013-04-30 09:30:00,62.8,47.8,29.86,West,269,3.0,3.0,58,0.00,,,0.00,Wunderground v.1.15,2013-04-30 16:30:00,
2013-04-30 09:35:00,63.1,48.1,29.86,NW,317,2.0,3.0,58,0.00,,,0.00,Wunderground v.1.15,2013-04-30 16:35:00,
2013-04-30 09:40:00,63.7,48.6,29.86,NW,325,2.0,3.0,58,0.00,,,0.00,Wunderground v.1.15,2013-04-30 16:40:00,
2013-04-30 09:45:00,64.4,48.8,29.86,SSE,159,1.0,3.0,57,0.00,,,0.00,Wunderground v.1.15,2013-04-30 16:45:00,
2013-04-30 09:50:00,64.9,48.8,29.86,NW,313,1.0,1.0,56,0.00,,,0.00,Wunderground v.1.15,2013-04-30 16:50:00,
2013-04-30 09:55:00,65.6,48.5,29.86,WNW,299,1.0,2.0,54,0.00,,,0.00,Wunderground v.1.15,2013-04-30 16:55:00,
2013-04-30 10:00:00,66.0,48.9,29.85,West,267,1.0,1.0,54,0.00,,,0.00,Wunderground v.1.15,2013-04-30 17:00:00,
2013-04-30 10:05:00,66.3,48.7,29.85,West,261,1.0,1.0,53,0.00,,,0.00,Wunderground v.1.15,2013-04-30 17:05:00,
2013-04-30 10:15:00,66.5,48.3,29.86,West,272,1.0,4.0,52,0.00,,,0.00,Wunderground v.1.15,2013-04-30 17:15:00,
2013-04-30 10:20:00,67.0,48.3,29.86,NW,318,2.0,2.0,51,0.00,,,0.00,Wunderground v.1.15,2013-04-30 17:20:00,
2013-04-30 10:25:00,67.0,48.3,29.86,NW,325,2.0,2.0,51,0.00,,,0.00,Wunderground v.1.15,2013-04-30 17:25:00,
2013-04-30 10:30:00,67.4,48.1,29.86,East,100,2.0,2.0,50,0.00,,,0.00,Wunderground v.1.15,2013-04-30 17:30:00,
2013-04-30 10:35:00,68.0,48.1,29.86,South,175,1.0,2.0,49,0.00,,,0.00,Wunderground v.1.15,2013-04-30 17:35:00,
2013-04-30 10:40:00,68.6,46.4,29.86,SW,229,1.0,4.0,45,0.00,,,0.00,Wunderground v.1.15,2013-04-30 17:40:00,
2013-04-30 10:45:00,68.9,46.1,29.86,WSW,254,1.0,4.0,44,0.00,,,0.00,Wunderground v.1.15,2013-04-30 17:45:00,
2013-04-30 10:55:00,69.8,45.0,29.86,WNW,292,1.0,2.0,41,0.00,,,0.00,Wunderground v.1.15,2013-04-30 17:55:00,
2013-04-30 11:00:00,70.2,47.3,29.86,WSW,253,1.0,1.0,44,0.00,,,0.00,Wunderground v.1.15,2013-04-30 18:00:00,
2013-04-30 11:05:00,70.4,46.2,29.86,SSW,198,1.0,1.0,42,0.00,,,0.00,Wunderground v.1.15,2013-04-30 18:05:00,
2013-04-30 11:10:00,71.2,45.6,29.86,NW,309,1.0,2.0,40,0.00,,,0.00,Wunderground v.1.15,2013-04-30 18:10:00,
2013-04-30 11:15:00,71.3,45.1,29.86,NW,305,1.0,2.0,39,0.00,,,0.00,Wunderground v.1.15,2013-04-30 18:15:00,
2013-04-30 11:20:00,72.1,43.7,29.86,WNW,291,1.0,3.0,36,0.00,,,0.00,Wunderground v.1.15,2013-04-30 18:20:00,
2013-04-30 11:25:00,72.0,42.8,29.86,West,262,1.0,3.0,35,0.00,,,0.00,Wunderground v.1.15,2013-04-30 18:25:00,
2013-04-30 11:30:00,72.3,42.3,29.86,NW,304,2.0,2.0,34,0.00,,,0.00,Wunderground v.1.15,2013-04-30 18:30:00,
2013-04-30 11:40:00,73.5,42.6,29.86,SSW,204,0.0,0.0,33,0.00,,,0.00,Wunderground v.1.15,2013-04-30 18:40:00,
2013-04-30 11:45:00,73.6,39.4,29.86,West,271,1.0,4.0,29,0.00,,,0.00,Wunderground v.1.15,2013-04-30 18:45:00,
2013-04-30 11:55:00,73.5,39.3,29.86,North,10,2.0,2.0,29,0.00,,,0.00,Wunderground v.1.15,2013-04-30 18:55:00,
2013-04-30 12:00:00,73.3,39.1,29.86,WNW,297,3.0,5.0,29,0.00,,,0.00,Wunderground v.1.15,2013-04-30 19:00:00,
2013-04-30 12:05:00,73.0,39.7,29.85,NNW,327,3.0,5.0,30,0.00,,,0.00,Wunderground v.1.15,2013-04-30 19:05:00,
2013-04-30 12:10:00,73.4,40.9,29.85,SW,216,2.0,7.0,31,0.00,,,0.00,Wunderground v.1.15,2013-04-30 19:10:00,
2013-04-30 12:15:00,73.9,40.5,29.85,North,5,2.0,7.0,30,0.00,,,0.00,Wunderground v.1.15,2013-04-30 19:15:00,
2013-04-30 12:20:00,74.1,38.9,29.85,SW,221,2.0,2.0,28,0.00,,,0.00,Wunderground v.1.15,2013-04-30 19:20:00,
2013-04-30 12:30:00,74.0,38.8,29.85,West,272,3.0,3.0,28,0.00,,,0.00,Wunderground v.1.15,2013-04-30 19:30:00,
2013-04-30 12:40:00,75.5,41.9,29.84,WNW,296,1.0,1.0,30,0.00,,,0.00,Wunderground v.1.15,2013-04-30 19:40:00,
2013-04-30 12:45:00,76.7,41.1,29.84,West,259,1.0,3.0,28,0.00,,,0.00,Wunderground v.1.15,2013-04-30 19:45:00,
2013-04-30 12:50:00,77.3,41.6,29.84,SSE,150,1.0,3.0,28,0.00,,,0.00,Wunderground v.1.15,2013-04-30 19:50:00,
2013-04-30 12:55:00,76.9,41.3,29.84,SE,146,2.0,3.0,28,0.00,,,0.00,Wunderground v.1.15,2013-04-30 19:55:00,
2013-04-30 13:00:00,76.8,42.1,29.84,SE,128,2.0,2.0,29,0.00,,,0.00,Wunderground v.1.15,2013-04-30 20:00:00,
2013-04-30 13:05:00,76.4,35.8,29.84,WNW,284,3.0,7.0,23,0.00,,,0.00,Wunderground v.1.15,2013-04-30 20:05:00,
2013-04-30 13:15:00,76.2,40.7,29.84,East,96,3.0,4.0,28,0.00,,,0.00,Wunderground v.1.15,2013-04-30 20:15:00,
2013-04-30 13:20:00,77.8,39.1,29.84,WSW,252,1.0,1.0,25,0.00,,,0.00,Wunderground v.1.15,2013-04-30 20:20:00,
2013-04-30 13:25:00,78.7,40.9,29.84,SW,214,1.0,1.0,26,0.00,,,0.00,Wunderground v.1.15,2013-04-30 20:25:00,
2013-04-30 13:30:00,79.5,40.6,29.83,NW,320,0.0,0.0,25,0.00,,,0.00,Wunderground v.1.15,2013-04-30 20:30:00,
2013-04-30 13:35:00,80.2,37.9,29.84,SSW,194,1.0,1.0,22,0.00,,,0.00,Wunderground v.1.15,2013-04-30 20:35:00,
2013-04-30 13:40:00,80.2,37.9,29.84,WNW,282,1.0,1.0,22,0.00,,,0.00,Wunderground v.1.15,2013-04-30 20:40:00,
2013-04-30 13:45:00,79.7,38.6,29.84,WSW,251,2.0,2.0,23,0.00,,,0.00,Wunderground v.1.15,2013-04-30 20:45:00,
2013-04-30 13:55:00,79.2,44.2,29.84,West,259,2.0,10.0,29,0.00,,,0.00,Wunderground v.1.15,2013-04-30 20:55:00,
2013-04-30 14:00:00,78.5,43.6,29.84,WSW,247,2.0,3.0,29,0.00,,,0.00,Wunderground v.1.15,2013-04-30 21:00:00,
2013-04-30 14:05:00,78.5,44.5,29.83,NW,304,2.0,3.0,30,0.00,,,0.00,Wunderground v.1.15,2013-04-30 21:05:00,
2013-04-30 14:15:00,79.4,44.4,29.83,NW,324,2.0,2.0,29,0.00,,,0.00,Wunderground v.1.15,2013-04-30 21:15:00,
2013-04-30 14:20:00,79.1,45.0,29.83,SW,232,3.0,3.0,30,0.00,,,0.00,Wunderground v.1.15,2013-04-30 21:20:00,
2013-04-30 14:25:00,79.6,43.6,29.83,South,184,2.0,3.0,28,0.00,,,0.00,Wunderground v.1.15,2013-04-30 21:25:00,
2013-04-30 14:35:00,79.9,42.9,29.83,NW,308,2.0,3.0,27,0.00,,,0.00,Wunderground v.1.15,2013-04-30 21:35:00,
2013-04-30 14:40:00,79.8,43.8,29.83,NW,318,2.0,2.0,28,0.00,,,0.00,Wunderground v.1.15,2013-04-30 21:40:00,
2013-04-30 14:45:00,79.5,43.5,29.83,NW,323,2.0,2.0,28,0.00,,,0.00,Wunderground v.1.15,2013-04-30 21:45:00,
2013-04-30 14:50:00,79.8,42.8,29.83,West,260,2.0,2.0,27,0.00,,,0.00,Wunderground v.1.15,2013-04-30 21:50:00,
2013-04-30 14:55:00,79.8,40.8,29.83,NNW,343,2.0,7.0,25,0.00,,,0.00,Wunderground v.1.15,2013-04-30 21:55:00,
2013-04-30 15:05:00,79.4,40.5,29.83,NNW,329,3.0,3.0,25,0.00,,,0.00,Wunderground v.1.15,2013-04-30 22:05:00,
2013-04-30 15:10:00,79.3,41.4,29.83,NNW,344,2.0,4.0,26,0.00,,,0.00,Wunderground v.1.15,2013-04-30 22:10:00,
2013-04-30 15:15:00,79.1,42.2,29.82,WSW,238,3.0,4.0,27,0.00,,,0.00,Wunderground v.1.15,2013-04-30 22:15:00,
2013-04-30 15:25:00,80.2,44.1,29.82,WSW,252,1.0,4.0,28,0.00,,,0.00,Wunderground v.1.15,2013-04-30 22:25:00,
2013-04-30 15:30:00,80.9,43.8,29.82,SE,135,1.0,1.0,27,0.00,,,0.00,Wunderground v.1.15,2013-04-30 22:30:00,
2013-04-30 15:35:00,81.4,43.2,29.82,WSW,255,1.0,1.0,26,0.00,,,0.00,Wunderground v.1.15,2013-04-30 22:35:00,
2013-04-30 15:40:00,81.8,43.6,29.82,NW,322,1.0,1.0,26,0.00,,,0.00,Wunderground v.1.15,2013-04-30 22:40:00,
2013-04-30 15:50:00,81.9,42.6,29.82,North,5,1.0,1.0,25,0.00,,,0.00,Wunderground v.1.15,2013-04-30 22:50:00,
2013-04-30 15:55:00,81.5,41.2,29.82,East,98,1.0,2.0,24,0.00,,,0.00,Wunderground v.1.15,2013-04-30 22:55:00,
2013-04-30 16:00:00,81.6,43.4,29.82,West,267,1.0,1.0,26,0.00,,,0.00,Wunderground v.1.15,2013-04-30 23:00:00,
2013-04-30 16:05:00,81.6,43.4,29.82,NW,310,1.0,4.0,26,0.00,,,0.00,Wunderground v.1.15,2013-04-30 23:05:00,
2013-04-30 16:10:00,81.2,42.0,29.81,WSW,258,1.0,3.0,25,0.00,,,0.00,Wunderground v.1.15,2013-04-30 23:10:00,
2013-04-30 16:15:00,80.5,43.4,29.81,North,355,2.0,4.0,27,0.00,,,0.00,Wunderground v.1.15,2013-04-30 23:15:00,
2013-04-30 16:25:00,80.7,42.6,29.81,West,275,2.0,3.0,26,0.00,,,0.00,Wunderground v.1.15,2013-04-30 23:25:00,
2013-04-30 16:30:00,80.9,41.8,29.81,NW,321,2.0,4.0,25,0.00,,,0.00,Wunderground v.1.15,2013-04-30 23:30:00,
2013-04-30 16:35:00,79.9,40.9,29.81,NW,308,2.0,4.0,25,0.00,,,0.00,Wunderground v.1.15,2013-04-30 23:35:00,
2013-04-30 16:40:00,80.0,43.0,29.81,WSW,246,2.0,3.0,27,0.00,,,0.00,Wunderground v.1.15,2013-04-30 23:40:00,
2013-04-30 16:50:00,79.9,41.9,29.81,West,266,2.0,4.0,26,0.00,,,0.00,Wunderground v.1.15,2013-04-30 23:50:00,
2013-04-30 16:55:00,79.2,42.3,29.81,NW,320,3.0,4.0,27,0.00,,,0.00,Wunderground v.1.15,2013-04-30 23:55:00,
2013-04-30 17:00:00,78.9,41.1,29.81,NW,311,3.0,3.0,26,0.00,,,0.00,Wunderground v.1.15,2013-05-01 00:00:00,
2013-04-30 17:05:00,78.7,41.9,29.81,West,260,3.0,4.0,27,0.00,,,0.00,Wunderground v.1.15,2013-05-01 00:05:00,
2013-04-30 17:15:00,79.2,43.3,29.81,NW,318,1.0,2.0,28,0.00,,,0.00,Wunderground v.1.15,2013-05-01 00:15:00,
2013-04-30 17:20:00,79.0,44.0,29.81,South,179,1.0,1.0,29,0.00,,,0.00,Wunderground v.1.15,2013-05-01 00:20:00,
2013-04-30 17:25:00,78.7,42.8,29.81,West,269,1.0,1.0,28,0.00,,,0.00,Wunderground v.1.15,2013-05-01 00:25:00,
2013-04-30 17:35:00,78.1,42.3,29.81,NNW,331,1.0,2.0,28,0.00,,,0.00,Wunderground v.1.15,2013-05-01 00:35:00,
2013-04-30 17:40:00,78.0,42.2,29.81,NNW,327,2.0,3.0,28,0.00,,,0.00,Wunderground v.1.15,2013-05-01 00:40:00,
2013-04-30 17:45:00,78.3,42.5,29.81,West,277,1.0,3.0,28,0.00,,,0.00,Wunderground v.1.15,2013-05-01 00:45:00,
2013-04-30 17:55:00,78.7,43.8,29.81,South,179,0.0,1.0,29,0.00,,,0.00,Wunderground v.1.15,2013-05-01 00:55:00,
2013-04-30 18:00:00,78.7,43.8,29.81,East,94,0.0,0.0,29,0.00,,,0.00,Wunderground v.1.15,2013-05-01 01:00:00,
2013-04-30 18:05:00,78.4,44.4,29.82,WNW,293,1.0,2.0,30,0.00,,,0.00,Wunderground v.1.15,2013-05-01 01:05:00,
2013-04-30 18:10:00,77.9,43.1,29.81,NNW,328,1.0,1.0,29,0.00,,,0.00,Wunderground v.1.15,2013-05-01 01:10:00,
2013-04-30 18:15:00,77.6,43.7,29.82,West,265,1.0,1.0,30,0.00,,,0.00,Wunderground v.1.15,2013-05-01 01:15:00,
2013-04-30 18:25:00,77.6,44.6,29.82,WNW,293,0.0,0.0,31,0.00,,,0.00,Wunderground v.1.15,2013-05-01 01:25:00,
2013-04-30 18:30:00,77.5,44.5,29.82,NW,305,0.0,2.0,31,0.00,,,0.00,Wunderground v.1.15,2013-05-01 01:30:00,
2013-04-30 18:35:00,77.2,42.5,29.82,NW,311,1.0,2.0,29,0.00,,,0.00,Wunderground v.1.15,2013-05-01 01:35:00,
2013-04-30 18:45:00,76.5,43.6,29.82,NW,323,1.0,1.0,31,0.00,,,0.00,Wunderground v.1.15,2013-05-01 01:45:00,
2013-04-30 18:50:00,76.2,41.6,29.82,WNW,291,0.0,1.0,29,0.00,,,0.00,Wunderground v.1.15,2013-05-01 01:50:00,
2013-04-30 18:55:00,75.8,43.0,29.82,WNW,296,0.0,1.0,31,0.00,,,0.00,Wunderground v.1.15,2013-05-01 01:55:00,
2013-04-30 19:00:00,74.9,43.8,29.82,WNW,302,0.0,0.0,33,0.00,,,0.00,Wunderground v.1.15,2013-05-01 02:00:00,
2013-04-30 19:10:00,73.3,44.7,29.82,North,360,0.0,0.0,36,0.00,,,0.00,Wunderground v.1.15,2013-05-01 02:10:00,
2013-04-30 19:15:00,72.6,43.4,29.82,NNW,337,0.0,1.0,35,0.00,,,0.00,Wunderground v.1.15,2013-05-01 02:15:00,
2013-04-30 19:20:00,72.2,44.5,29.82,NNW,337,0.0,1.0,37,0.00,,,0.00,Wunderground v.1.15,2013-05-01 02:20:00,
2013-04-30 19:25:00,71.8,44.1,29.82,NNW,336,0.0,1.0,37,0.00,,,0.00,Wunderground v.1.15,2013-05-01 02:25:00,
2013-04-30 19:35:00,71.1,44.2,29.83,NNW,336,0.0,0.0,38,0.00,,,0.00,Wunderground v.1.15,2013-05-01 02:35:00,
2013-04-30 19:40:00,70.6,45.1,29.83,NNW,336,0.0,0.0,40,0.00,,,0.00,Wunderground v.1.15,2013-05-01 02:40:00,
2013-04-30 19:50:00,69.9,43.8,29.83,NNW,331,1.0,2.0,39,0.00,,,0.00,Wunderground v.1.15,2013-05-01 02:50:00,
2013-04-30 20:00:00,69.5,43.4,29.83,NNW,329,1.0,1.0,39,0.00,,,0.00,Wunderground v.1.15,2013-05-01 03:00:00,
2013-04-30 20:05:00,69.3,43.9,29.83,NNW,331,1.0,1.0,40,0.00,,,0.00,Wunderground v.1.15,2013-05-01 03:05:00,
2013-04-30 20:10:00,68.9,43.6,29.83,NNW,329,1.0,1.0,40,0.00,,,0.00,Wunderground v.1.15,2013-05-01 03:10:00,
2013-04-30 20:20:00,68.5,43.2,29.84,NNW,332,1.0,1.0,40,0.00,,,0.00,Wunderground v.1.15,2013-05-01 03:20:00,
2013-04-30 20:25:00,68.3,44.3,29.84,NNW,332,0.0,1.0,42,0.00,,,0.00,Wunderground v.1.15,2013-05-01 03:25:00,
2013-04-30 20:30:00,67.7,44.4,29.84,NNW,332,0.0,0.0,43,0.00,,,0.00,Wunderground v.1.15,2013-05-01 03:30:00,
2013-04-30 20:35:00,67.3,44.0,29.84,NNW,332,0.0,0.0,43,0.00,,,0.00,Wunderground v.1.15,2013-05-01 03:35:00,
2013-04-30 20:40:00,67.1,43.8,29.84,NNW,332,0.0,0.0,43,0.00,,,0.00,Wunderground v.1.15,2013-05-01 03:40:00,
2013-04-30 20:50:00,66.9,43.0,29.84,NNW,332,0.0,0.0,42,0.00,,,0.00,Wunderground v.1.15,2013-05-01 03:50:00,
2013-04-30 20:55:00,66.8,41.0,29.84,NNW,332,0.0,0.0,39,0.00,,,0.00,Wunderground v.1.15,2013-05-01 03:55:00,
2013-04-30 21:00:00,66.7,38.9,29.84,NNW,332,0.0,0.0,36,0.00,,,0.00,Wunderground v.1.15,2013-05-01 04:00:00,
2013-04-30 21:05:00,66.6,36.6,29.85,NNW,332,0.0,0.0,33,0.00,,,0.00,Wunderground v.1.15,2013-05-01 04:05:00,
2013-04-30 21:10:00,67.0,32.8,29.85,WNW,292,0.0,0.0,28,0.00,,,0.00,Wunderground v.1.15,2013-05-01 04:10:00,
2013-04-30 21:15:00,67.6,28.5,29.85,NNE,13,0.0,0.0,23,0.00,,,0.00,Wunderground v.1.15,2013-05-01 04:15:00,
2013-04-30 21:20:00,67.9,31.7,29.85,North,9,0.0,0.0,26,0.00,,,0.00,Wunderground v.1.15,2013-05-01 04:20:00,
2013-04-30 21:25:00,68.4,28.0,29.85,NW,311,0.0,0.0,22,0.00,,,0.00,Wunderground v.1.15,2013-05-01 04:25:00,
2013-04-30 21:35:00,67.7,30.6,29.85,NW,313,0.0,0.0,25,0.00,,,0.00,Wunderground v.1.15,2013-05-01 04:35:00,
2013-04-30 21:40:00,67.7,30.6,29.85,West,278,0.0,0.0,25,0.00,,,0.00,Wunderground v.1.15,2013-05-01 04:40:00,
2013-04-30 21:45:00,67.8,30.7,29.85,West,278,0.0,0.0,25,0.00,,,0.00,Wunderground v.1.15,2013-05-01 04:45:00,
2013-04-30 21:55:00,67.5,30.4,29.85,WNW,297,0.0,0.0,25,0.00,,,0.00,Wunderground v.1.15,2013-05-01 04:55:00,
2013-04-30 22:00:00,67.6,32.4,29.86,WNW,295,0.0,0.0,27,0.00,,,0.00,Wunderground v.1.15,2013-05-01 05:00:00,
2013-04-30 22:05:00,67.2,33.8,29.86,WNW,297,0.0,0.0,29,0.00,,,0.00,Wunderground v.1.15,2013-05-01 05:05:00,
2013-04-30 22:10:00,66.6,35.8,29.86,WNW,298,0.0,0.0,32,0.00,,,0.00,Wunderground v.1.15,2013-05-01 05:10:00,
2013-04-30 22:20:00,65.6,34.9,29.86,NW,311,0.0,0.0,32,0.00,,,0.00,Wunderground v.1.15,2013-05-01 05:20:00,
2013-04-30 22:25:00,65.2,35.4,29.86,NW,308,0.0,0.0,33,0.00,,,0.00,Wunderground v.1.15,2013-05-01 05:25:00,
2013-04-30 22:30:00,64.9,35.8,29.86,NW,308,0.0,1.0,34,0.00,,,0.00,Wunderground v.1.15,2013-05-01 05:30:00,
2013-04-30 22:35:00,64.7,33.3,29.86,WNW,291,0.0,1.0,31,0.00,,,0.00,Wunderground v.1.15,2013-05-01 05:35:00,
2013-04-30 22:40:00,64.7,31.7,29.86,WNW,293,0.0,0.0,29,0.00,,,0.00,Wunderground v.1.15,2013-05-01 05:40:00,
2013-04-30 22:50:00,64.9,35.1,29.86,SW,230,0.0,0.0,33,0.00,,,0.00,Wunderground v.1.15,2013-05-01 05:50:00,
2013-04-30 22:55:00,64.7,34.1,29.86,WNW,296,0.0,0.0,32,0.00,,,0.00,Wunderground v.1.15,2013-05-01 05:55:00,
2013-04-30 23:00:00,64.8,34.2,29.86,West,266,0.0,2.0,32,0.00,,,0.00,Wunderground v.1.15,2013-05-01 06:00:00,
2013-04-30 23:05:00,65.3,33.9,29.87,WNW,292,1.0,2.0,31,0.00,,,0.00,Wunderground v.1.15,2013-05-01 06:05:00,
2013-04-30 23:10:00,65.3,32.2,29.86,WSW,244,1.0,1.0,29,0.00,,,0.00,Wunderground v.1.15,2013-05-01 06:10:00,
2013-04-30 23:15:00,64.8,32.6,29.86,WSW,244,0.0,1.0,30,0.00,,,0.00,Wunderground v.1.15,2013-05-01 06:15:00,
2013-04-30 23:25:00,64.5,28.8,29.86,NNW,333,0.0,0.0,26,0.00,,,0.00,Wunderground v.1.15,2013-05-01 06:25:00,
2013-04-30 23:30:00,64.5,26.9,29.86,NW,310,0.0,0.0,24,0.00,,,0.00,Wunderground v.1.15,2013-05-01 06:30:00,
2013-04-30 23:35:00,64.7,29.0,29.86,North,350,0.0,0.0,26,0.00,,,0.00,Wunderground v.1.15,2013-05-01 06:35:00,
2013-04-30 23:40:00,64.7,28.0,29.86,NNW,344,0.0,0.0,25,0.00,,,0.00,Wunderground v.1.15,2013-05-01 06:40:00,
2013-04-30 23:45:00,65.0,27.3,29.87,NW,319,0.0,0.0,24,0.00,,,0.00,Wunderground v.1.15,2013-05-01 06:45:00,
2013-04-30 23:50:00,64.9,25.1,29.87,NW,311,0.0,1.0,22,0.00,,,0.00,Wunderground v.1.15,2013-05-01 06:50:00,